Location: Mauries
(43.6188°N, 0.3322°W)
Time: 18:29:50
(UTC+00:00)

COSMOS 2406 - Pass Details

Date: 14 January 2026
Orbit: 843 x 861 km, 71.0° (Epoch: 10 February)

Event Time Altitude Azimuth Distance (km) Brightness Sun altitude
Rises 06:44:14 0° 337° (NNW) 3,433 5.9 -8.7°
Reaches altitude 10° 06:46:44 10° 341° (NNW) 2,495 5.3 -8.3°
Maximum altitude 06:52:25 62° 62° (ENE) 961 3.7 -7.3°
Drops below altitude 10° 06:58:05 10° 143° (SE) 2,489 6.7 -6.4°
Sets 07:00:34 0° 147° (SSE) 3,423 7.5 -6.0°
